Location: ???
(35.5616°N, 139.7977°E)
Time: 03:01:09
(UTC+00:00)

Cosmos 1484 Rocket - Pass Details

Date: 17 November 2025
Orbit: 442 x 473 km, 97.6° (Epoch: 09 December)

Event Time Altitude Azimuth Distance (km) Brightness Sun altitude
Rises 20:30:32 0° 7° (N) 2,526 6.1 -10.1°
Reaches altitude 10° 20:32:38 10° 3° (N) 1,640 5.1 -9.7°
Maximum altitude 20:36:05 58° 284° (WNW) 549 2.5 -9.0°
Drops below altitude 10° 20:39:30 10° 205° (SSW) 1,611 5.1 -8.4°
Sets 20:41:32 0° 201° (SSW) 2,475 6.1 -8.0°
